Regional Weather Roundup
Issued by NWS

Home | Current Version | Previous Version | Text Only | Print | Product List | Glossary On
Versions: 1 2 3 4 5 6 7 8 9 10 11 12 13 14 15 16 17 18 19 20 21 22 23 24 25 26 27 28 29 30 31 32 33 34 35 36 37 38 39 40 41 42 43 44 45 46 47 48 49 50
000
ASUS43 KOAX 300810
RWRNE

WEATHER ROUNDUP FOR NEBRASKA
NATIONAL WEATHER SERVICE OMAHA NE
300 AM CDT SAT JUL 30 2016

NOTES: SATELLITE DATA IS BEING USED TO AUGMENT CLOUD COVER ABOVE
       12000 FEET.
       "FAIR" INDICATES FEW OR NO CLOUDS BELOW 12,000 FEET WITH NO
       SIGNIFICANT WEATHER AND/OR OBSTRUCTIONS TO VISIBILITY.

  * THESE STATIONS DO NOT REPORT WEATHER SUCH AS RAIN...SNOW OR FOG.

NEZ001>004-019>022-054>056-300900-
NEBRASKA PANHANDLE

CITY           SKY/WX    TMP DP  RH WIND       PRES   REMARKS
SCOTTSBLUFF    PTCLDY    61  57  87 NE5       30.04F
ALLIANCE       CLEAR     58  56  93 E7        30.04F
CHADRON        CLEAR     58  56  93 CALM      30.02R
KIMBALL        PTCLDY    61  60  97 SW3       30.11F
SIDNEY         PTCLDY    63  59  87 S7        30.08F
$$

NEZ057>060-069>072-079>082-300900-
SOUTHWEST NEBRASKA

CITY           SKY/WX    TMP DP  RH WIND       PRES   REMARKS
NORTH PLATTE   PTCLDY    65  63  93 E8        30.04F
IMPERIAL       CLEAR     64  60  87 SE7       30.05F
LEXINGTON      PTCLDY    67  63  87 SE5       30.05R
MCCOOK         CLEAR     67  63  87 SE7       30.03F
OGALLALA       CLEAR     66  63  88 S5        30.04F
$$

NEZ005>010-023>029-035>040-094-300900-
NORTH CENTRAL NEBRASKA

CITY           SKY/WX    TMP DP  RH WIND       PRES   REMARKS
VALENTINE      PTCLDY    66  60  81 SE5       30.03S
AINSWORTH      CLOUDY    66  60  82 SE5       30.04S THUNDER
BROKEN BOW     CLOUDY    63  62  97 CALM      30.04F
O`NEILL        CLEAR     64  58  82 SE3       30.04F
ORD            PTCLDY    62  59  90 SE3       30.02F
THEDFORD       MOCLDY    65  63  93 E3        30.05F
$$

NEZ041-046>049-061>064-073>077-083>087-300900-
SOUTH CENTRAL NEBRASKA

CITY           SKY/WX    TMP DP  RH WIND       PRES   REMARKS
GRAND ISLAND   CLEAR     63  59  87 E5        30.05S
AURORA         CLEAR     61  60  96 SE5       30.05S
HASTINGS       PTCLDY    67  59  75 SE9       30.05S
HEBRON         CLEAR     62  60  94 CALM      30.03S
HOLDREGE       CLEAR     64  61  88 SE5       30.04F
KEARNEY *      CLOUDY    64  63  94 SE7       30.04F
YORK           PTCLDY    64  61  88 SE8       30.05S
$$

NEZ011>018-030>034-042>045-300900-
NORTHEAST NEBRASKA

CITY           SKY/WX    TMP DP  RH WIND       PRES   REMARKS
NORFOLK        MOCLDY    60  57  89 CALM      30.04F
ALBION         PTCLDY    61  57  87 CALM      30.04F
BLAIR          PTCLDY    65  61  87 CALM      30.03S
FREMONT        PTCLDY    63  59  88 CALM      30.04S
TEKAMAH        PTCLDY    61  58  90 CALM      30.03S
WAYNE          CLEAR     57  56  96 CALM      30.05S
$$

NEZ050>053-065>068-078-088>093-300900-
SOUTHEAST NEBRASKA

CITY           SKY/WX    TMP DP  RH WIND       PRES   REMARKS
LINCOLN        PTCLDY    68  62  81 CALM      30.04S
OMAHA EPPLEY   PTCLDY    66  61  84 CALM      30.02F
BEATRICE       CLEAR     63  61  92 NE5       30.03S
FALLS CITY     PTCLDY    63  62  97 CALM      30.01F
NEBRASKA CITY  CLEAR     63  63 100 CALM      30.03S
PLATTSMOUTH    CLOUDY    63  62  97 CALM      30.03S
$$

NEZ044-045-051>053-067-300900-
OMAHA AREA

CITY           SKY/WX    TMP DP  RH WIND       PRES   REMARKS
OMAHA EPPLEY   PTCLDY    66  61  84 CALM      30.02F
BLAIR          PTCLDY    65  61  87 CALM      30.03S
FREMONT        PTCLDY    63  59  88 CALM      30.04S
MILLARD        CLOUDY    65  63  93 CALM      30.02S
OFFUTT AFB     MOCLDY    62  62 100 NE2       30.02S
PLATTSMOUTH    CLOUDY    63  62  97 CALM      30.03S
WAHOO          FAIR      62  60  93 CALM      30.04S
$$




USA.gov is the U.S. government's official web portal to all federal, state and local government web resources and services.